EN

Hourly Weather Prikubanskiy

Today, 27 October, Tuesday

Time Temperature Precipitation Wind Pressure Humidity
00:00 +16°C° 0 mm 3 mps 760 mmHg 69%
01:00 +14°C° 0 mm 3 mps 760 mmHg 70%
02:00 +14°C° 0 mm 3 mps 760 mmHg 71%
03:00 +13°C° 0 mm 4 mps 760 mmHg 72%
04:00 +13°C° 0 mm 3 mps 760 mmHg 74%
05:00 +12°C° 0 mm 3 mps 760 mmHg 75%
06:00 +12°C° 0 mm 3 mps 760 mmHg 76%
07:00 +13°C° 0 mm 3 mps 760 mmHg 72%
08:00 +14°C° 0 mm 3 mps 760 mmHg 69%
09:00 +16°C° 0 mm 3 mps 761 mmHg 65%
10:00 +18°C° 0 mm 3 mps 761 mmHg 58%
11:00 +20°C° 0 mm 3 mps 760 mmHg 50%
12:00 +23°C° 0 mm 2 mps 760 mmHg 43%
13:00 +22°C° 0 mm 3 mps 760 mmHg 42%
14:00 +24°C° 0 mm 3 mps 760 mmHg 41%
15:00 +24°C° 0 mm 3 mps 760 mmHg 41%
16:00 +22°C° 0 mm 3 mps 760 mmHg 47%
17:00 +20°C° 0 mm 3 mps 760 mmHg 52%
18:00 +19°C° 0 mm 3 mps 760 mmHg 58%
19:00 +18°C° 0 mm 3 mps 760 mmHg 61%
20:00 +18°C° 0 mm 3 mps 760 mmHg 63%
21:00 +17°C° 0 mm 3 mps 760 mmHg 66%
22:00 +17°C° 0 mm 3 mps 760 mmHg 67%
23:00 +16°C° 0 mm 3 mps 760 mmHg 69%

Tomorrow, 28 October, Wednesday

Time Temperature Precipitation Wind Pressure Humidity
00:00 +16°C° 0 mm 2 mps 760 mmHg 70%
01:00 +15°C° 0 mm 2 mps 760 mmHg 71%
02:00 +15°C° 0 mm 2 mps 760 mmHg 71%
03:00 +15°C° 0 mm 2 mps 760 mmHg 72%
04:00 +14°C° 0 mm 2 mps 760 mmHg 73%
05:00 +14°C° 0 mm 2 mps 760 mmHg 73%
06:00 +14°C° 0 mm 2 mps 760 mmHg 74%
07:00 +15°C° 0 mm 2 mps 760 mmHg 69%
08:00 +16°C° 0 mm 2 mps 760 mmHg 64%
09:00 +17°C° 0 mm 2 mps 760 mmHg 60%
10:00 +19°C° 0 mm 2 mps 760 mmHg 53%
11:00 +21°C° 0 mm 3 mps 760 mmHg 46%
12:00 +24°C° 0 mm 3 mps 759 mmHg 39%
13:00 +24°C° 0 mm 3 mps 759 mmHg 38%
14:00 +25°C° 0 mm 3 mps 759 mmHg 37%
15:00 +26°C° 0 mm 3 mps 759 mmHg 36%
16:00 +24°C° 0 mm 3 mps 759 mmHg 42%
17:00 +21°C° 0 mm 3 mps 759 mmHg 48%
18:00 +19°C° 0 mm 3 mps 759 mmHg 54%
19:00 +19°C° 0 mm 3 mps 759 mmHg 57%
20:00 +18°C° 0 mm 3 mps 759 mmHg 59%
21:00 +18°C° 0 mm 3 mps 759 mmHg 62%
22:00 +17°C° 0 mm 2 mps 759 mmHg 64%
23:00 +17°C° 0 mm 2 mps 758 mmHg 65%

Day after tomorrow, 29 October, Thursday

Time Temperature Precipitation Wind Pressure Humidity
00:00 +16°C° 0 mm 1 mps 758 mmHg 67%
01:00 +16°C° 0 mm 1 mps 758 mmHg 67%
02:00 +16°C° 0 mm 2 mps 758 mmHg 67%
03:00 +16°C° 0 mm 2 mps 758 mmHg 66%
04:00 +16°C° 0 mm 2 mps 758 mmHg 66%
05:00 +16°C° 0 mm 1 mps 758 mmHg 66%
06:00 +16°C° 0 mm 1 mps 758 mmHg 66%
07:00 +18°C° 0 mm 1 mps 758 mmHg 63%
08:00 +19°C° 0 mm 1 mps 758 mmHg 60%
09:00 +20°C° 0 mm 1 mps 758 mmHg 57%
10:00 +21°C° 0 mm 2 mps 758 mmHg 51%
11:00 +24°C° 0 mm 2 mps 758 mmHg 45%
12:00 +26°C° 0 mm 2 mps 758 mmHg 38%
13:00 +26°C° 0 mm 2 mps 758 mmHg 39%
14:00 +27°C° 0 mm 3 mps 758 mmHg 40%
15:00 +27°C° 0 mm 3 mps 758 mmHg 40%
16:00 +26°C° 0 mm 2 mps 758 mmHg 45%
17:00 +24°C° 0 mm 2 mps 758 mmHg 50%
18:00 +23°C° 0 mm 1 mps 758 mmHg 56%
19:00 +22°C° 0 mm 1 mps 758 mmHg 58%
20:00 +21°C° 0 mm 1 mps 758 mmHg 61%
21:00 +21°C° 0 mm 1 mps 758 mmHg 64%
22:00 +20°C° 0 mm 1 mps 758 mmHg 69%
23:00 +19°C° 0 mm 2 mps 758 mmHg 74%

30 October, Friday

Time Temperature Precipitation Wind Pressure Humidity
00:00 +19°C° 0 mm 3 mps 758 mmHg 79%
01:00 +19°C° 0.1 mm 3 mps 758 mmHg 82%
02:00 +18°C° 0.1 mm 2 mps 758 mmHg 84%
03:00 +18°C° 0.1 mm 2 mps 758 mmHg 87%
04:00 +19°C° 0.3 mm 1 mps 759 mmHg 88%
05:00 +18°C° 0.3 mm 1 mps 759 mmHg 89%
06:00 +18°C° 0.3 mm 1 mps 759 mmHg 89%
07:00 +18°C° 0 mm 2 mps 759 mmHg 83%
08:00 +18°C° 0 mm 3 mps 759 mmHg 77%
09:00 +19°C° 0 mm 3 mps 760 mmHg 71%
10:00 +20°C° 0 mm 4 mps 760 mmHg 65%
11:00 +22°C° 0 mm 4 mps 759 mmHg 59%
12:00 +23°C° 0 mm 5 mps 759 mmHg 52%
13:00 +23°C° 0 mm 5 mps 759 mmHg 51%
14:00 +23°C° 0 mm 5 mps 759 mmHg 50%
15:00 +23°C° 0 mm 6 mps 759 mmHg 48%
16:00 +22°C° 0 mm 5 mps 759 mmHg 55%
17:00 +20°C° 0 mm 4 mps 759 mmHg 62%
18:00 +19°C° 0 mm 3 mps 759 mmHg 70%
19:00 +18°C° 0 mm 3 mps 759 mmHg 74%
20:00 +18°C° 0 mm 2 mps 760 mmHg 78%
21:00 +17°C° 0 mm 2 mps 760 mmHg 82%
22:00 +16°C° 0 mm 2 mps 760 mmHg 85%
23:00 +16°C° 0 mm 1 mps 760 mmHg 88%

31 October, Saturday

Time Temperature Precipitation Wind Pressure Humidity
00:00 +15°C° 0 mm 1 mps 760 mmHg 91%
01:00 +15°C° 0 mm 1 mps 760 mmHg 91%
02:00 +14°C° 0 mm 0 mps 760 mmHg 91%
03:00 +14°C° 0 mm 0 mps 760 mmHg 91%
04:00 +13°C° 0 mm 0 mps 760 mmHg 91%
05:00 +14°C° 0 mm 1 mps 759 mmHg 91%
06:00 +14°C° 0 mm 1 mps 759 mmHg 91%
07:00 +15°C° 0 mm 1 mps 759 mmHg 88%
08:00 +15°C° 0 mm 1 mps 759 mmHg 85%
09:00 +16°C° 0 mm 1 mps 759 mmHg 82%
10:00 +19°C° 0 mm 1 mps 759 mmHg 76%
11:00 +19°C° 0 mm 2 mps 759 mmHg 69%
12:00 +20°C° 0 mm 2 mps 759 mmHg 62%
13:00 +21°C° 0 mm 3 mps 759 mmHg 58%
14:00 +22°C° 0 mm 3 mps 758 mmHg 54%
15:00 +24°C° 0 mm 3 mps 758 mmHg 50%
16:00 +22°C° 0 mm 3 mps 758 mmHg 54%
17:00 +20°C° 0 mm 2 mps 758 mmHg 58%
18:00 +19°C° 0 mm 2 mps 758 mmHg 61%
19:00 +19°C° 0 mm 2 mps 758 mmHg 63%
20:00 +18°C° 0 mm 2 mps 758 mmHg 65%
21:00 +18°C° 0 mm 2 mps 758 mmHg 66%
22:00 +17°C° 0 mm 2 mps 758 mmHg 68%
23:00 +18°C° 0 mm 1 mps 758 mmHg 69%

1 November, Sunday

Time Temperature Precipitation Wind Pressure Humidity
00:00 +16°C° 0 mm 1 mps 758 mmHg 71%
01:00 +16°C° 0 mm 1 mps 758 mmHg 72%
02:00 +16°C° 0 mm 2 mps 757 mmHg 74%
03:00 +16°C° 0 mm 2 mps 757 mmHg 75%
04:00 +15°C° 0 mm 2 mps 757 mmHg 76%
05:00 +15°C° 0 mm 2 mps 757 mmHg 78%
06:00 +15°C° 0 mm 2 mps 757 mmHg 79%
07:00 +16°C° 0.1 mm 2 mps 757 mmHg 76%
08:00 +17°C° 0.1 mm 2 mps 758 mmHg 73%
09:00 +17°C° 0.1 mm 2 mps 758 mmHg 70%
10:00 +19°C° 0 mm 2 mps 758 mmHg 64%
11:00 +20°C° 0 mm 2 mps 758 mmHg 59%
12:00 +23°C° 0 mm 2 mps 759 mmHg 53%
13:00 +23°C° 0 mm 2 mps 759 mmHg 53%
14:00 +24°C° 0 mm 3 mps 759 mmHg 52%
15:00 +23°C° 0 mm 4 mps 759 mmHg 52%
16:00 +22°C° 0 mm 3 mps 759 mmHg 55%
17:00 +21°C° 0 mm 3 mps 759 mmHg 58%
18:00 +20°C° 0 mm 2 mps 759 mmHg 62%
19:00 +19°C° 0 mm 2 mps 759 mmHg 61%
20:00 +19°C° 0 mm 2 mps 759 mmHg 61%
21:00 +19°C° 0 mm 2 mps 759 mmHg 61%
22:00 +18°C° 0 mm 2 mps 759 mmHg 62%
23:00 +18°C° 0 mm 2 mps 758 mmHg 63%
Show more

We Need Your Consent

Meteoprog and our Service Providers may store and access personal data such as cookies, device identifiers or other similar technologies on your device and process such data to personalise content and ads, as well as provide social media features and to analyse the traffic.

  • Store and/or access information on your device

    Cookies, device identifiers or other information can be stored or accessed on your device for the purposes indicated above.

  • Personalised ads and content, ad and content measurement, audience insights, and products development

    Ads and content can be personalised based on a profile. More data can be added to better personalise ads and content. Ad and content performance can be measured. Insights about the audience who saw the ads and content can be derived. Such data can be used to develop or improve user’s experience, systems and software.

By clicking ‘I Agree’ you will allow the use of indicated cookies, device identifiers, web beacons or other similar technologies. Your settings can be changed in the browser on your device.

For certain purposes, legitimate interests may be relied on, rather than consent. You can read more about this in our Privacy and Cookie Policy.